AirNav   Air Wisconsin Up To $57,000 Bonus
 
 383 users online  

16TE Holly Lake Ranch Airport
Hawkins, Texas, USA

GOING TO HAWKINS?


FAA INFORMATION EFFECTIVE 09 SEPTEMBER 2021

Location

FAA Identifier: 16TE
Lat/Long: 32-41-51.4860N 095-12-27.8030W
32-41.858100N 095-12.463383W
32.6976350,-95.2077231
(estimated)
Elevation: 409 ft. / 125 m (estimated)
Variation: 08E (1965)
From city: 7 miles N of HAWKINS, TX
Time zone: UTC -5 (UTC -6 during Standard Time)
Zip code: 75765

Airport Operations

Airport use: Private use. Permission required prior to landing
Activation date: 12/1972
Control tower: no
ARTCC: FORT WORTH CENTER
FSS: FORT WORTH FLIGHT SERVICE STATION
Attendance: UNATNDD
Segmented circle: no
Lights: ACTVT LIRL RY 09/27 - 122.9.

Airport Communications

WX AWOS-3 at JXI (13 nm E): 118.2 (903-734-7313)
WX AWOS-3 at JDD (15 nm W): 118.9 (903-768-3065)

Nearby radio navigation aids

VOR radial/distance  VOR name  Freq  Var
TYRr020/22.8TYLER VOR/DME114.2006E
GGGr299/28.5GREGG COUNTY VORTAC112.9007E
SLRr143/34.5SULPHUR SPRINGS VOR/DME109.0008E

 
NDB name  Hdg/Dist  Freq  Var  ID
AMBASSADOR318/8.340407EABG .- -... --.

Airport Services

Airframe service: NONE
Powerplant service: NONE

Runway Information

Runway 9/27

Dimensions: 2700 x 30 ft. / 823 x 9 m
RY 27 FIRST 500 FT FOR TKOFFS ONLY.
Surface: asphalt
Runway edge lights: low intensity
RUNWAY 9  RUNWAY 27
Traffic pattern: leftleft

Airport Ownership and Management from official FAA records

Ownership: Privately-owned
Owner: SILVERLEAF
PO BOX 358
DALLAS, TX 75221
Phone 214-969-9068
Manager: ROBERT JAMES
RT 1, BOX 698
BIG SANDY, TX 75755
Phone 903-769-3646

Additional Remarks

A52-09 FENCE W END; TREES EA SIDE OF APCH E END.
FOR CD CTC FORT WORTH ARTCC AT 817-858-7584.

Instrument Procedures

There are no published instrument procedures at 16TE.

Some nearby airports with instrument procedures:

KJXI - Fox Stephens Field - Gilmer Municipal Airport (13 nm E)
KJDD - Wood County Airport - Collins Field (15 nm W)
F51 - Winnsboro Municipal Airport (15 nm N)
3F9 - Mineola Airport-Wisener Field (15 nm W)
07F - Gladewater Municipal Airport (16 nm SE)
 
Loc | Ops | Rwys | IFR | FBO | Links
Com | Nav | Svcs | Stats | Notes
Area around 16TE (Holly Lake Ranch Airport)
 
Road maps at: MapQuest Bing Google
 
Aerial photo
WARNING: Photo may not be current or correct
Aerial photo of 16TE (Holly Lake Ranch Airport)
Do you have a better or more recent aerial photo of Holly Lake Ranch Airport that you would like to share? If so, please send us your photo.

 
Sectional chart

 
Airport distance calculator
Flying to Holly Lake Ranch Airport? Find the distance to fly.

From to 16TE

Sunrise and sunset
Times for 21-Sep-2021
 Local
(UTC-5)
 Zulu
(UTC)
Morning civil twilight06:4511:45
Sunrise07:0912:09
Sunset19:1800:18
Evening civil twilight19:4300:43

Current date and time
Zulu (UTC)  21-Sep-2021 07:43:47
Local (UTC-5)  21-Sep-2021 02:43:47
 
METAR
KJXI 
13nm E 
210715Z AUTO 17004KT 10SM CLR 25/21 A2991 RMK AO2 T02460211
KJDD 
15nm W 
210715Z AUTO 19005KT 10SM CLR 26/22 A2990 RMK AO2
KTYR 
22nm SW 
210653Z AUTO 18009KT 10SM CLR 26/22 A2991 RMK AO2 SLP118 T02560222 $
TAF
KTYR 
22nm SW 
210526Z 2106/2206 18009KT P6SM BKN250 FM211500 27009G15KT P6SM BKN250 FM211700 34013G19KT P6SM VCTS SCT100CB FM220000 36018G24KT P6SM BKN250 FM220400 36010KT P6SM SKC
NOTAMs
Click for the latest NOTAMs
NOTAMs are issued by the DoD/FAA and will open in a separate window not controlled by AirNav.

 

 
 

Would you like to see your business listed on this page?

 If your business provides an interesting product or service to pilots, flight crews, aircraft, or users of the Holly Lake Ranch Airport, you should consider listing it here.  To start the listing process, click on the button below
 
Add a business
 

Other Pages about Holly Lake Ranch Airport

www.hollylakeranch.com/id217.htm
 
Update a link
 
Copyright © AirNav, LLC. All rights reserved. Privacy Policy  Contact